�������l�o���
Date,Time,MP-1(��Sv/h),MP-2(��Sv/h),MP-3(��Sv/h),MP-4(��Sv/h),MP-5(��Sv/h),MP-6(��Sv/h),MP-7(��Sv/h),MP-8(��Sv/h),����,����(m/s),���J
2022/04/29,00:00,0.582,0.871,0.553,1.067,0.755,0.348,0.609,0.569,��,4.1,��
2022/04/29,00:10,0.584,0.870,0.553,1.067,0.756,0.350,0.608,0.568,��,3.4,��
2022/04/29,00:20,0.582,0.872,0.553,1.064,0.754,0.350,0.609,0.570,��,3.7,��
2022/04/29,00:30,0.582,0.871,0.554,1.064,0.754,0.351,0.608,0.570,��쐼,3.8,��
2022/04/29,00:40,0.584,0.869,0.552,1.068,0.755,0.350,0.610,0.572,��,4.1,��
2022/04/29,00:50,0.583,0.870,0.553,1.066,0.755,0.350,0.609,0.570,��쐼,4.5,��
2022/04/29,01:00,0.583,0.867,0.552,1.066,0.754,0.351,0.608,0.571,��쐼,4.7,��
2022/04/29,01:10,0.583,0.870,0.552,1.066,0.756,0.350,0.608,0.571,��쐼,3.9,��
2022/04/29,01:20,0.584,0.869,0.553,1.068,0.755,0.350,0.609,0.572,��쐼,3.8,��
2022/04/29,01:30,0.584,0.870,0.554,1.067,0.756,0.349,0.610,0.570,��쐼,3.4,��
2022/04/29,01:40,0.583,0.870,0.553,1.065,0.756,0.350,0.608,0.571,��쐼,2.8,��
2022/04/29,01:50,0.583,0.872,0.553,1.067,0.756,0.349,0.610,0.571,�쐼,1.9,��
2022/04/29,02:00,0.582,0.871,0.553,1.067,0.757,0.350,0.610,0.570,���k��,1.2,��
2022/04/29,02:10,0.583,0.871,0.553,1.066,0.754,0.350,0.609,0.571,�k��,1.1,��
2022/04/29,02:20,0.584,0.869,0.551,1.066,0.755,0.349,0.610,0.570,�k��,2.8,��
2022/04/29,02:30,0.582,0.871,0.552,1.066,0.755,0.349,0.610,0.571,�k�k��,4.9,��
2022/04/29,02:40,0.582,0.870,0.553,1.068,0.755,0.350,0.610,0.572,�k�k��,6.7,��
2022/04/29,02:50,0.582,0.869,0.553,1.067,0.755,0.349,0.609,0.571,�k�k��,6.5,��
2022/04/29,03:00,0.583,0.871,0.553,1.067,0.755,0.350,0.609,0.570,�k�k��,5.9,��
2022/04/29,03:10,0.585,0.869,0.553,1.066,0.754,0.350,0.609,0.570,�k�k��,6.0,��
2022/04/29,03:20,0.583,0.870,0.553,1.068,0.756,0.349,0.609,0.571,�k�k��,5.4,��
2022/04/29,03:30,0.582,0.869,0.555,1.067,0.755,0.350,0.610,0.570,�k�k��,6.3,��
2022/04/29,03:40,0.583,0.870,0.553,1.067,0.754,0.350,0.609,0.571,�k�k��,6.8,��
2022/04/29,03:50,0.583,0.871,0.554,1.067,0.755,0.350,0.610,0.569,�k�k��,7.2,��
2022/04/29,04:00,0.581,0.869,0.554,1.069,0.756,0.350,0.609,0.570,�k�k��,8.1,��
2022/04/29,04:10,0.582,0.868,0.551,1.068,0.756,0.350,0.609,0.571,�k�k��,8.6,��
2022/04/29,04:20,0.584,0.872,0.552,1.066,0.757,0.350,0.610,0.570,�k�k��,8.1,��
2022/04/29,04:30,0.583,0.871,0.554,1.065,0.754,0.349,0.609,0.570,�k�k��,7.3,��
2022/04/29,04:40,0.583,0.871,0.552,1.069,0.754,0.349,0.609,0.571,�k�k��,7.7,��
2022/04/29,04:50,0.583,0.871,0.552,1.069,0.754,0.350,0.608,0.572,�k�k��,6.9,��
2022/04/29,05:00,0.583,0.869,0.553,1.066,0.754,0.350,0.610,0.570,�k�k��,7.4,��
2022/04/29,05:10,0.581,0.871,0.552,1.065,0.755,0.349,0.608,0.571,�k�k��,6.7,��
2022/04/29,05:20,0.584,0.869,0.553,1.068,0.755,0.350,0.611,0.569,�k�k��,7.3,��
2022/04/29,05:30,0.582,0.872,0.551,1.067,0.754,0.350,0.609,0.570,�k�k��,8.4,��
2022/04/29,05:40,0.583,0.870,0.553,1.067,0.755,0.349,0.609,0.572,�k�k��,7.6,��
2022/04/29,05:50,0.582,0.871,0.554,1.068,0.753,0.350,0.609,0.570,�k�k��,7.2,��
2022/04/29,06:00,0.584,0.870,0.552,1.068,0.753,0.349,0.609,0.572,�k�k��,6.6,��
2022/04/29,06:10,0.583,0.870,0.552,1.068,0.755,0.349,0.609,0.571,�k�k��,6.7,��
2022/04/29,06:20,0.583,0.871,0.554,1.070,0.756,0.350,0.607,0.571,�k�k��,6.3,��
2022/04/29,06:30,0.583,0.869,0.554,1.068,0.755,0.350,0.607,0.572,�k�k��,5.8,��
2022/04/29,06:40,0.583,0.871,0.551,1.070,0.754,0.349,0.606,0.570,�k�k��,5.9,��
2022/04/29,06:50,0.583,0.871,0.553,1.068,0.755,0.351,0.607,0.572,�k�k��,5.4,��
2022/04/29,07:00,0.584,0.869,0.553,1.067,0.755,0.350,0.606,0.571,�k�k��,5.8,��
2022/04/29,07:10,0.581,0.869,0.552,1.067,0.755,0.349,0.607,0.572,�k�k��,5.1,��
2022/04/29,07:20,0.583,0.872,0.554,1.066,0.756,0.350,0.605,0.572,�k�k��,5.3,��
2022/04/29,07:30,0.582,0.872,0.553,1.070,0.757,0.349,0.605,0.571,�k,5.1,��
2022/04/29,07:40,0.583,0.872,0.554,1.065,0.754,0.350,0.604,0.571,�k,4.9,��
2022/04/29,07:50,0.583,0.871,0.552,1.065,0.757,0.349,0.606,0.571,�k,4.2,��
2022/04/29,08:00,0.583,0.870,0.552,1.067,0.754,0.350,0.604,0.571,�k,5.9,��
2022/04/29,08:10,0.583,0.871,0.554,1.066,0.755,0.350,0.605,0.573,�k�k��,6.3,��
2022/04/29,08:20,0.584,0.869,0.553,1.069,0.752,0.350,0.605,0.570,�k,5.9,��
2022/04/29,08:30,0.583,0.869,0.554,1.067,0.753,0.349,0.605,0.571,�k,6.8,��
2022/04/29,08:40,0.583,0.870,0.554,1.066,0.757,0.350,0.604,0.570,�k,6.5,��
2022/04/29,08:50,0.582,0.869,0.553,1.068,0.752,0.350,0.606,0.569,�k,7.5,��
2022/04/29,09:00,0.584,0.870,0.553,1.069,0.753,0.350,0.604,0.569,�k,6.8,��
2022/04/29,09:10,0.582,0.869,0.556,1.068,0.755,0.350,0.603,0.570,�k,7.7,��
2022/04/29,09:20,0.581,0.870,0.554,1.066,0.752,0.349,0.605,0.571,�k,7.1,��
2022/04/29,09:30,0.582,0.869,0.553,1.067,0.754,0.350,0.605,0.570,�k,6.8,��
2022/04/29,09:40,0.582,0.869,0.552,1.070,0.753,0.349,0.603,0.568,�k,6.8,��
2022/04/29,09:50,0.582,0.868,0.555,1.068,0.752,0.348,0.602,0.568,�k,7.5,��
2022/04/29,10:00,0.583,0.868,0.553,1.067,0.752,0.349,0.603,0.569,�k,8.6,��
2022/04/29,10:10,0.583,0.869,0.553,1.069,0.755,0.350,0.604,0.569,�k,7.8,��
2022/04/29,10:20,0.582,0.869,0.556,1.067,0.754,0.350,0.603,0.568,�k,6.4,��
2022/04/29,10:30,0.583,0.870,0.554,1.069,0.752,0.351,0.603,0.569,�k,5.8,��
2022/04/29,10:40,0.583,0.870,0.554,1.071,0.753,0.350,0.604,0.571,�k,6.1,��
2022/04/29,10:50,0.585,0.870,0.553,1.068,0.753,0.351,0.604,0.569,�k,6.9,��
2022/04/29,11:00,0.584,0.871,0.556,1.066,0.754,0.349,0.605,0.569,�k,6.6,��
2022/04/29,11:10,0.584,0.869,0.553,1.067,0.756,0.351,0.605,0.569,�k,7.0,��
2022/04/29,11:20,0.583,0.870,0.554,1.068,0.755,0.349,0.605,0.569,�k,6.5,��
2022/04/29,11:30,0.582,0.871,0.555,1.068,0.755,0.350,0.607,0.570,�k,5.8,��
2022/04/29,11:40,0.583,0.870,0.554,1.068,0.753,0.350,0.604,0.569,�k,4.6,��
2022/04/29,11:50,0.584,0.871,0.555,1.068,0.755,0.351,0.605,0.569,�k,7.3,��
2022/04/29,12:00,0.585,0.869,0.555,1.069,0.754,0.352,0.604,0.570,�k,6.3,��
2022/04/29,12:10,0.584,0.870,0.555,1.070,0.754,0.351,0.604,0.570,�k,6.8,��
2022/04/29,12:20,0.585,0.870,0.553,1.069,0.754,0.350,0.604,0.571,�k�k��,7.4,��
2022/04/29,12:30,0.586,0.871,0.556,1.067,0.756,0.351,0.606,0.571,�k,7.6,�L
2022/04/29,12:40,0.584,0.871,0.554,1.069,0.754,0.351,0.604,0.570,�k�k��,7.3,�L
2022/04/29,12:50,0.585,0.870,0.554,1.070,0.755,0.350,0.604,0.570,�k,6.9,�L
2022/04/29,13:00,0.585,0.871,0.555,1.068,0.754,0.352,0.605,0.571,�k,7.5,�L
2022/04/29,13:10,0.584,0.873,0.554,1.072,0.755,0.350,0.605,0.572,�k�k��,8.7,�L
2022/04/29,13:20,0.584,0.871,0.553,1.069,0.756,0.350,0.605,0.572,�k�k��,8.2,�L
2022/04/29,13:30,0.584,0.873,0.553,1.069,0.755,0.351,0.605,0.573,�k,7.1,�L
2022/04/29,13:40,0.584,0.872,0.554,1.070,0.756,0.351,0.605,0.574,�k,7.4,��
2022/04/29,13:50,0.585,0.873,0.554,1.069,0.757,0.351,0.603,0.573,�k,8.3,�L
2022/04/29,14:00,0.584,0.872,0.554,1.068,0.757,0.351,0.605,0.573,�k�k��,9.0,��
2022/04/29,14:10,0.585,0.871,0.554,1.070,0.756,0.351,0.605,0.573,�k�k��,8.8,�L
2022/04/29,14:20,0.586,0.873,0.554,1.072,0.754,0.350,0.604,0.573,�k,9.1,�L
2022/04/29,14:30,0.585,0.872,0.556,1.070,0.755,0.350,0.604,0.575,�k�k��,9.4,�L
2022/04/29,14:40,0.585,0.873,0.554,1.072,0.757,0.352,0.606,0.573,�k,9.8,�L
2022/04/29,14:50,0.585,0.870,0.552,1.070,0.755,0.351,0.605,0.571,�k,9.1,�L
2022/04/29,15:00,0.581,0.863,0.552,1.063,0.751,0.351,0.602,0.569,�k�k��,11.3,�L
2022/04/29,15:10,0.577,0.853,0.548,1.056,0.743,0.352,0.600,0.567,�k,9.3,�L
2022/04/29,15:20,0.576,0.849,0.548,1.048,0.739,0.352,0.599,0.567,�k,9.4,�L
2022/04/29,15:30,0.573,0.844,0.545,1.042,0.735,0.348,0.598,0.568,�k�k��,10.2,�L
2022/04/29,15:40,0.572,0.843,0.546,1.041,0.734,0.349,0.598,0.567,�k�k��,9.0,�L
2022/04/29,15:50,0.571,0.842,0.546,1.034,0.732,0.347,0.597,0.565,�k�k��,8.4,�L
2022/04/29,16:00,0.569,0.838,0.542,1.031,0.730,0.348,0.598,0.565,�k�k��,9.2,�L
2022/04/29,16:10,0.567,0.833,0.542,1.025,0.728,0.348,0.594,0.565,�k�k��,9.0,�L
2022/04/29,16:20,0.566,0.833,0.541,1.022,0.727,0.346,0.595,0.563,�k�k��,11.8,�L
2022/04/29,16:30,0.565,0.830,0.539,1.020,0.724,0.345,0.595,0.563,�k,11.0,�L
2022/04/29,16:40,0.562,0.829,0.540,1.016,0.720,0.347,0.592,0.562,�k�k��,10.6,�L
2022/04/29,16:50,0.562,0.829,0.538,1.013,0.719,0.345,0.593,0.560,�k�k��,11.0,�L
2022/04/29,17:00,0.560,0.826,0.537,1.012,0.717,0.344,0.591,0.558,�k,10.8,�L
2022/04/29,17:10,0.558,0.821,0.536,1.010,0.716,0.345,0.591,0.559,�k,12.4,�L
2022/04/29,17:20,0.557,0.822,0.535,1.008,0.715,0.344,0.590,0.560,�k,9.4,�L
2022/04/29,17:30,0.556,0.820,0.534,1.003,0.711,0.344,0.589,0.558,�k�k��,10.7,�L
2022/04/29,17:40,0.556,0.818,0.535,1.003,0.709,0.344,0.587,0.559,�k�k��,6.2,�L
2022/04/29,17:50,0.555,0.815,0.533,0.998,0.704,0.343,0.586,0.559,�k,7.7,�L
2022/04/29,18:00,0.556,0.816,0.533,0.995,0.703,0.345,0.587,0.557,�k,10.4,�L
2022/04/29,18:10,0.557,0.816,0.534,0.997,0.703,0.344,0.586,0.557,�k�k��,14.1,�L
2022/04/29,18:20,0.554,0.815,0.533,0.996,0.701,0.343,0.585,0.557,�k,14.1,�L
2022/04/29,18:30,0.554,0.814,0.534,0.992,0.699,0.344,0.583,0.556,�k,16.6,�L
2022/04/29,18:40,0.553,0.812,0.534,0.993,0.699,0.343,0.584,0.556,�k�k��,14.6,�L
2022/04/29,18:50,0.552,0.811,0.532,0.989,0.696,0.342,0.582,0.555,-,CALM,�L
2022/04/29,19:00,0.553,0.809,0.530,0.987,0.694,0.343,0.582,0.556,�k,15.0,�L
2022/04/29,19:10,0.551,0.809,0.530,0.985,0.690,0.343,0.581,0.555,�k�k��,11.8,�L
2022/04/29,19:20,0.550,0.805,0.530,0.983,0.687,0.343,0.581,0.554,�k,15.2,�L
2022/04/29,19:30,0.549,0.806,0.530,0.980,0.687,0.342,0.581,0.554,�k,15.8,�L
2022/04/29,19:40,0.550,0.804,0.530,0.980,0.686,0.343,0.578,0.554,�k�k��,14.4,�L
2022/04/29,19:50,0.547,0.805,0.528,0.977,0.684,0.343,0.578,0.553,-,CALM,�L
2022/04/29,20:00,0.549,0.802,0.529,0.977,0.683,0.342,0.578,0.553,-,CALM,�L
2022/04/29,20:10,0.549,0.806,0.528,0.978,0.683,0.341,0.577,0.553,�k,14.1,�L
2022/04/29,20:20,0.551,0.805,0.529,0.979,0.683,0.343,0.578,0.555,�k,15.0,�L
2022/04/29,20:30,0.549,0.804,0.529,0.981,0.682,0.339,0.577,0.554,�k,16.8,�L
2022/04/29,20:40,0.549,0.805,0.529,0.979,0.682,0.342,0.577,0.554,�k,13.8,�L
2022/04/29,20:50,0.549,0.806,0.528,0.981,0.682,0.338,0.579,0.555,�k,11.9,�L
2022/04/29,21:00,0.550,0.803,0.526,0.979,0.681,0.338,0.578,0.553,�k�k��,10.0,�L
2022/04/29,21:10,0.548,0.803,0.526,0.977,0.679,0.340,0.576,0.553,�k�k��,14.1,�L
2022/04/29,21:20,0.547,0.803,0.525,0.975,0.678,0.338,0.575,0.552,�k�k��,12.1,�L
2022/04/29,21:30,0.549,0.804,0.525,0.977,0.678,0.339,0.576,0.553,�k�k��,12.4,�L
2022/04/29,21:40,0.546,0.802,0.526,0.975,0.677,0.339,0.576,0.553,�k�k��,13.0,�L
2022/04/29,21:50,0.546,0.804,0.524,0.978,0.680,0.338,0.577,0.553,�k�k��,11.9,�L
2022/04/29,22:00,0.547,0.804,0.524,0.979,0.680,0.337,0.577,0.553,�k�k��,13.5,�L
2022/04/29,22:10,0.547,0.805,0.525,0.982,0.682,0.337,0.578,0.553,�k�k��,13.8,�L
2022/04/29,22:20,0.549,0.805,0.525,0.983,0.683,0.338,0.579,0.554,�k�k��,13.0,�L
2022/04/29,22:30,0.548,0.806,0.525,0.985,0.683,0.337,0.579,0.555,�k�k��,14.3,�L
2022/04/29,22:40,0.547,0.805,0.526,0.985,0.682,0.337,0.578,0.555,�k�k��,11.7,�L
2022/04/29,22:50,0.548,0.807,0.524,0.985,0.682,0.338,0.578,0.554,�k�k��,11.7,�L
2022/04/29,23:00,0.548,0.806,0.524,0.985,0.682,0.338,0.578,0.553,�k�k��,12.1,�L
2022/04/29,23:10,0.547,0.805,0.522,0.984,0.682,0.338,0.578,0.554,�k�k��,12.4,�L
2022/04/29,23:20,0.546,0.805,0.524,0.984,0.681,0.337,0.578,0.553,�k�k��,14.6,�L
2022/04/29,23:30,0.545,0.806,0.523,0.984,0.680,0.338,0.577,0.554,�k�k��,11.9,�L
2022/04/29,23:40,0.547,0.806,0.525,0.987,0.680,0.339,0.578,0.554,�k�k��,11.3,�L
2022/04/29,23:50,0.546,0.805,0.524,0.987,0.682,0.338,0.578,0.551,�k�k��,10.7,�L
